North Platte, NE

3:45 AM CDT on August 19, 2017 (GMT -0500)
North Platte Regional-Bird

Weather History for KLBF - February, 2013

Change the Weather History Date:

Tuesday, February 5, 2013

  Actual Average Record
Temperature  
Mean Temperature 37 °F 27 °F  
Max Temperature 55 °F 41 °F 69 °F (1904)
Min Temperature 19 °F 13 °F -27 °F (1905)
Degree Days  
Heating Degree Days 28 38  
Month to date heating degree days 146 193  
Since 1 July heating degree days 4101 4213  
Cooling Degree Days 0 0  
Month to date cooling degree days 0 0  
Year to date cooling degree days 0 0  
Moisture  
Dew Point 22 °F    
Average Humidity 58    
Maximum Humidity 88    
Minimum Humidity 28    
Precipitation  
Precipitation 0.00 in 0.01 in 0.53 in (1881)
Month to date precipitation T 0.06  
Year to date precipitation 0.24 0.40  
Snow  
Snow 0.00 in 0.20 in 4.00 in (1986)
Month to date snowfall 0.0 0.9  
Since 1 July snowfall 8.9 16.5  
Snow Depth 0.00 in    
Sea Level Pressure  
Sea Level Pressure 30.00 in    
Wind  
Wind Speed 6 mph (WNW)    
Max Wind Speed 14 mph    
Max Gust Speed 18 mph    
Visibility 10 miles    
Events      
T = Trace of Precipitation, MM = Missing Value Source: NWS Daily Summary

Daily Weather History Graph

Daily Weather History Graph

Search for Another Location

Airport or City:

Trip Planner

Search our weather history database for the weather conditions in past years. The results will help you decide how hot, cold, wet, or windy it might be!

Date:

Astronomy

Feb. 05, 2013 Rise Set
Actual Time 7:49 AM CST 6:04 PM CST
Civil Twilight 7:20 AM CST 6:33 PM CST
Nautical Twilight 6:47 AM CST 7:06 PM CST
Astronomical Twilight 6:15 AM CST 7:38 PM CST
Moon 3:33 AM CST (2/5) 1:23 PM CST (2/5)
Length of Visible Light 11h 13m
Length of Day
10h 15m
Waning Crescent, 26% of the Moon is Illuminated
Feb 5
Waning Crescent
Feb 10
New
Feb 17
First Quarter
Feb 25
Full
Mar 4
Last Quarter

Hourly Weather History & Observations

Time (CST) Temp. Windchill Dew Point Humidity Pressure Visibility Wind Dir Wind Speed Gust Speed Precip Events Conditions
12:53 AM 26.1 °F 19.4 °F 19.0 °F 75% 29.90 in 10.0 mi WNW 5.8 mph - N/A   Clear
1:53 AM 27.0 °F 19.5 °F 21.0 °F 78% 29.89 in 10.0 mi WNW 6.9 mph - N/A   Clear
2:53 AM 23.0 °F 15.8 °F 19.0 °F 85% 29.93 in 10.0 mi NW 5.8 mph - N/A   Clear
3:53 AM 21.9 °F 12.5 °F 18.0 °F 85% 29.92 in 10.0 mi NW 8.1 mph - N/A   Clear
4:53 AM 21.0 °F 12.4 °F 17.1 °F 85% 29.94 in 10.0 mi WNW 6.9 mph - N/A   Clear
5:53 AM 21.2 °F 13.6 °F 17.6 °F 86% 29.92 in 10.0 mi NW 5.8 mph - N/A   Clear
6:53 AM 21.9 °F 12.5 °F 18.0 °F 85% 30.01 in 10.0 mi WNW 8.1 mph - N/A   Clear
7:53 AM 21.0 °F 12.4 °F 17.1 °F 85% 30.05 in 10.0 mi NW 6.9 mph - N/A   Clear
8:53 AM 27.0 °F 20.5 °F 21.9 °F 81% 30.07 in 10.0 mi NW 5.8 mph - N/A   Clear
9:53 AM 36.0 °F 29.6 °F 24.1 °F 62% 30.08 in 10.0 mi WNW 8.1 mph - N/A   Clear
10:53 AM 43.0 °F 40.3 °F 27.0 °F 53% 30.09 in 10.0 mi West 4.6 mph - N/A   Clear
11:53 AM 51.1 °F - 25.0 °F 36% 30.09 in 10.0 mi NNW 10.4 mph - N/A   Clear
12:53 PM 53.1 °F - 23.0 °F 31% 30.06 in 10.0 mi NW 6.9 mph - N/A   Clear
1:53 PM 54.0 °F - 21.9 °F 29% 30.02 in 10.0 mi West 6.9 mph - N/A   Clear
2:53 PM 54.0 °F - 21.9 °F 29% 30.01 in 10.0 mi SW 3.5 mph - N/A   Clear
3:53 PM 54.0 °F - 21.9 °F 29% 30.01 in 10.0 mi West 5.8 mph - N/A   Clear
4:53 PM 53.1 °F - 24.1 °F 32% 30.00 in 10.0 mi Calm Calm - N/A   Clear
5:53 PM 46.9 °F - 24.1 °F 41% 30.01 in 10.0 mi South 5.8 mph - N/A   Clear
6:53 PM 41.0 °F - 24.1 °F 51% 30.01 in 10.0 mi Calm Calm - N/A   Clear
7:53 PM 39.0 °F 34.8 °F 25.0 °F 57% 30.02 in 10.0 mi East 5.8 mph - N/A   Overcast
8:53 PM 37.9 °F 32.7 °F 24.1 °F 57% 30.01 in 10.0 mi East 6.9 mph - N/A   Mostly Cloudy
9:53 PM 34.0 °F 28.8 °F 23.0 °F 64% 29.99 in 10.0 mi SE 5.8 mph - N/A   Clear
10:53 PM 42.1 °F 36.6 °F 24.1 °F 49% 29.95 in 10.0 mi SSE 9.2 mph - N/A   Clear
11:53 PM 42.1 °F 35.7 °F 26.1 °F 53% 29.92 in 10.0 mi SSE 11.5 mph - N/A   Clear